This is the latest recevied weather packets stored in our database for station/object IT9FBN-3. If no packets are shown the sender has not sent any weather packets the latest 10 day(s).
| Time | Temp. | Humidity | Pressure | Rain* | Wind** | Luminosity | Snow |
|---|---|---|---|---|---|---|---|
| 1777998004 | 17.78° C | 66% | 1017 hPa | 0 mm | - | - | - |
| 1777997703 | 17.78° C | 67% | 1017 hPa | 0 mm | - | - | - |
| 1777997403 | 18.33° C | 65% | 1017.1 hPa | 0 mm | - | - | - |
| 1777997103 | 18.33° C | 64% | 1017.2 hPa | 0 mm | - | - | - |
| 1777996803 | 18.89° C | 61% | 1017.2 hPa | 0 mm | - | - | - |
| 1777996503 | 18.89° C | 62% | 1017.2 hPa | 0 mm | - | - | - |
| 1777996203 | 18.89° C | 62% | 1017.2 hPa | 0 mm | - | - | - |
| 1777995903 | 18.89° C | 61% | 1017.3 hPa | 0 mm | - | - | - |
| 1777995603 | 19.44° C | 61% | 1017.4 hPa | 0 mm | - | - | - |
| 1777995303 | 19.44° C | 63% | 1017.3 hPa | 0 mm | - | - | - |
| 1777995003 | 19.44° C | 61% | 1017.2 hPa | 0 mm | - | - | - |
| 1777994703 | 19.44° C | 61% | 1017.2 hPa | 0 mm | - | - | - |
| 1777994403 | 19.44° C | 60% | 1017.2 hPa | 0 mm | - | - | - |
| 1777994103 | 19.44° C | 56% | 1017.2 hPa | 0 mm | - | - | - |
| 1777993803 | 19.44° C | 56% | 1017.3 hPa | 0 mm | - | - | - |
| 1777993503 | 19.44° C | 54% | 1017.3 hPa | 0 mm | - | - | - |
| 1777993203 | 19.44° C | 52% | 1017.3 hPa | 0 mm | - | - | - |
| 1777992903 | 20° C | 59% | 1017.2 hPa | 0 mm | - | - | - |
| 1777992603 | 20° C | 55% | 1017.1 hPa | 0 mm | - | - | - |
| 1777992303 | 19.44° C | 53% | 1017.1 hPa | 0 mm | - | - | - |
| 1777992003 | 20° C | 60% | 1017 hPa | 0 mm | - | - | - |
| 1777991703 | 20° C | 58% | 1017 hPa | 0 mm | - | - | - |
| 1777991403 | 20° C | 58% | 1017.1 hPa | 0 mm | - | - | - |
| 1777991103 | 20° C | 58% | 1017.1 hPa | 0 mm | - | - | - |
| 1777990803 | 20° C | 57% | 1017.1 hPa | 0 mm | - | - | - |
* Rain latest hour (hover to see other rain measurements)
** Current wind speed in m/s (hover to see current wind gust speed)